Tracking 30922 objects as of 2-Jul-2025
HD Live streaming from Space Station
objects crossing your sky now

CZ-3B DEB

Track CZ-3B DEB now!


NORAD ID: 40193
Int'l Code: 2011-077S
Perigee: 874.3 km
Apogee: 42,087.6 km
Inclination: 25.9 °
Period: 771.0 minutes
Semi major axis: 27851 km
RCS: Unknown
Launch date: December 19, 2011
Source: People's Republic of China (PRC)
Launch site: Xichang Space Center, China (XSC)

Note: This is SATELLITE DEBRIS
Your satellite tracking list
H-2A R/B
Track 1 satellite(s)




NASA's NSSDC Master Catalog

Two Line Element Set (TLE):
1 40193U 11077S   25181.84393614  .00000022  00000-0  12779-1 0  9999
2 40193  25.8800 120.8065 7398646 185.7308 154.5511  1.86775618 69599
Source of the keplerian elements: AFSPC